Regional Weather Roundup
Issued by NWS

Home | Current Version | Previous Version | Text Only | Print | Product List | Glossary On
Versions: 1 2 3 4 5 6 7 8 9 10 11 12 13 14 15 16 17 18 19 20 21 22 23 24 25 26 27 28 29 30 31 32 33 34 35 36 37 38 39 40 41 42 43 44 45 46 47 48 49 50
000
ASUS43 KLSX 162057
RWRMO

WEATHER SUMMARY FOR MISSOURI
NATIONAL WEATHER SERVICE SPRINGFIELD MO
300 PM CST SAT DEC 16 2017

NOTE: "FAIR" INDICATES FEW OR NO CLOUDS BELOW 12,000 FEET WITH NO
       SIGNIFICANT WEATHER AND/OR OBSTRUCTIONS TO VISIBILITY.
       CURRENT SKY AND/OR WEATHER CONDITIONS ARE NOT AVAILABLE FOR
       CHILLICOTHE AND FARMINGTON.

MOZ001>031-035>038-043-044-053-054-162200-
...NORTHERN AND WESTERN MISSOURI...

CITY           SKY/WX    TMP DP  RH WIND       PRES   REMARKS
KANSAS CTY INT MOSUNNY   58  27  30 S16       29.86S
LEE`S SUMMIT   SUNNY     60  26  27 SW16      29.87S
ST JOSEPH      SUNNY     57  29  34 S13       29.86R
CHILLICOTHE      N/A     57  27  31 S8        29.88S

$$
MOZ066>068-077>081-088>096-101>105-162200-
...SOUTHWEST MISSOURI...

CITY           SKY/WX    TMP DP  RH WIND       PRES   REMARKS
SPRINGFIELD    CLOUDY    57  24  28 S18G25    29.96F
JOPLIN         CLOUDY    59  25  27 S20G26    29.95S
BRANSON        PTSUNNY   57  21  24 S9G17     30.02S

$$
MOZ032>034-039>042-045>050-055>058-069>072-162200-
...CENTRAL MISSOURI...

CITY           SKY/WX    TMP DP  RH WIND       PRES   REMARKS
COLUMBIA       NOT AVBL
JEFFERSON CITY SUNNY     62  24  23 SW16G22   29.93S
ROLLA          CLOUDY    58  26  29 S12       29.96S
SEDALIA        SUNNY     61  27  27 SW18G28   29.92
WARRENSBURG    SUNNY     61  25  25 S16       29.89S

$$
MOZ051-052-059>065-162200-
...EAST CENTRAL MISSOURI...

CITY           SKY/WX    TMP DP  RH WIND       PRES   REMARKS
ST LOUIS INTL  MOSUNNY   62  27  26 SW15      29.96R

$$
MOZ072>076-082>087-097>100-106>115-162200-
...SOUTH CENTRAL AND SOUTHEAST MISSOURI...

CITY           SKY/WX    TMP DP  RH WIND       PRES   REMARKS
CAPE GIRARDEAU SUNNY     51  30  44 S18G29    30.07S
POPLAR BLUFF   CLOUDY    52  30  43 S13       30.08S

$$


USA.gov is the U.S. government's official web portal to all federal, state and local government web resources and services.